TimeCST,TemperatureF,Dew PointF,Humidity,Sea Level PressureIn,VisibilityMPH,Wind Direction,Wind SpeedMPH,Gust SpeedMPH,PrecipitationIn,Events,Conditions,WindDirDegrees,DateUTC
12:15 AM,68.0,59.0,73,30.13,10.0,ESE,5.8,-,N/A,,Overcast,120,2012-12-31 06:15:00
12:35 AM,68.0,59.2,73,30.11,10.0,ESE,4.6,-,N/A,,Overcast,120,2012-12-31 06:35:00
12:55 AM,68.0,59.2,73,30.10,10.0,ESE,6.9,-,N/A,,Overcast,120,2012-12-31 06:55:00
1:15 AM,68.2,59.4,73,30.10,10.0,SE,5.8,-,N/A,,Overcast,130,2012-12-31 07:15:00
1:55 AM,68.5,59.9,74,30.08,10.0,ESE,8.1,-,N/A,,Overcast,120,2012-12-31 07:55:00
2:15 AM,69.1,60.3,73,30.09,10.0,SE,6.9,-,N/A,,Overcast,140,2012-12-31 08:15:00
2:35 AM,69.8,60.8,73,30.08,10.0,SSE,9.2,-,N/A,,Overcast,150,2012-12-31 08:35:00
2:55 AM,70.0,61.2,73,30.07,10.0,SE,9.2,-,N/A,,Overcast,140,2012-12-31 08:55:00
3:15 AM,70.0,61.3,74,30.06,10.0,SSE,9.2,-,N/A,,Overcast,150,2012-12-31 09:15:00
3:35 AM,70.0,61.9,75,30.07,10.0,SSE,6.9,-,N/A,,Overcast,150,2012-12-31 09:35:00
3:55 AM,69.8,62.6,78,30.06,10.0,SSE,6.9,-,N/A,,Overcast,150,2012-12-31 09:55:00
4:15 AM,69.1,63.1,81,30.06,10.0,SSE,4.6,-,N/A,,Overcast,150,2012-12-31 10:15:00
4:35 AM,68.7,63.5,83,30.05,10.0,SE,4.6,-,N/A,,Overcast,140,2012-12-31 10:35:00
5:15 AM,68.5,64.4,87,30.03,10.0,SSE,8.1,-,N/A,,Overcast,150,2012-12-31 11:15:00
5:55 AM,68.2,64.4,88,30.03,10.0,SSE,5.8,-,N/A,,Overcast,150,2012-12-31 11:55:00
6:15 AM,68.0,64.8,89,30.03,7.0,SSE,5.8,-,N/A,,Overcast,160,2012-12-31 12:15:00
6:55 AM,65.3,63.5,94,30.03,10.0,SE,4.6,-,N/A,,Overcast,140,2012-12-31 12:55:00
7:15 AM,64.0,62.4,94,30.03,10.0,SSE,4.6,-,N/A,,Overcast,150,2012-12-31 13:15:00
7:35 AM,64.0,62.2,94,30.03,10.0,SSE,5.8,-,N/A,,Overcast,150,2012-12-31 13:35:00
7:55 AM,64.4,62.6,94,30.02,10.0,SE,6.9,-,N/A,,Overcast,140,2012-12-31 13:55:00
8:15 AM,64.8,62.6,93,30.03,10.0,SE,6.9,-,N/A,,Overcast,140,2012-12-31 14:15:00
8:35 AM,65.3,62.6,91,30.02,10.0,SE,9.2,-,N/A,,Mostly Cloudy,140,2012-12-31 14:35:00
8:55 AM,66.2,62.6,88,30.02,10.0,SSE,9.2,-,N/A,,Scattered Clouds,150,2012-12-31 14:55:00
9:15 AM,67.5,63.5,87,30.03,10.0,SSE,8.1,-,N/A,,Scattered Clouds,160,2012-12-31 15:15:00
9:35 AM,69.3,63.9,83,30.04,10.0,SSE,10.4,-,N/A,,Scattered Clouds,160,2012-12-31 15:35:00
9:55 AM,70.7,64.0,79,30.04,10.0,South,13.8,-,N/A,,Scattered Clouds,170,2012-12-31 15:55:00
10:15 AM,71.6,64.0,77,30.03,10.0,SSE,13.8,-,N/A,,Scattered Clouds,160,2012-12-31 16:15:00
10:35 AM,72.5,64.4,76,30.03,10.0,SSE,13.8,-,N/A,,Scattered Clouds,150,2012-12-31 16:35:00
10:55 AM,74.5,64.0,70,30.03,10.0,South,17.3,24.2,N/A,,Scattered Clouds,170,2012-12-31 16:55:00
11:15 AM,75.4,63.5,66,30.02,10.0,SSE,16.1,21.9,N/A,,Scattered Clouds,160,2012-12-31 17:15:00
11:35 AM,76.1,63.1,64,30.01,10.0,South,12.7,18.4,N/A,,Scattered Clouds,180,2012-12-31 17:35:00
11:55 AM,76.8,63.1,63,29.99,10.0,SSE,17.3,20.7,N/A,,Scattered Clouds,160,2012-12-31 17:55:00
12:15 PM,77.0,62.8,61,29.98,10.0,SSE,17.3,23.0,N/A,,Scattered Clouds,160,2012-12-31 18:15:00
12:55 PM,78.4,63.1,59,29.97,10.0,South,12.7,20.7,N/A,,Mostly Cloudy,190,2012-12-31 18:55:00
1:15 PM,80.1,63.1,56,29.93,10.0,SSE,18.4,24.2,N/A,,Scattered Clouds,160,2012-12-31 19:15:00
1:35 PM,81.0,62.8,54,29.92,10.0,South,20.7,26.5,N/A,,Clear,170,2012-12-31 19:35:00
1:55 PM,80.6,62.6,54,29.91,10.0,South,17.3,28.8,N/A,,Scattered Clouds,170,2012-12-31 19:55:00
2:15 PM,80.1,62.6,55,29.89,10.0,SSE,17.3,24.2,N/A,,Scattered Clouds,160,2012-12-31 20:15:00
2:35 PM,80.4,63.1,55,29.90,10.0,SSE,10.4,-,N/A,,Scattered Clouds,150,2012-12-31 20:35:00
2:55 PM,80.2,63.5,57,29.90,10.0,SSE,10.4,17.3,N/A,,Scattered Clouds,160,2012-12-31 20:55:00
3:15 PM,81.0,63.7,56,29.88,7.0,SSE,15.0,-,N/A,,Scattered Clouds,150,2012-12-31 21:15:00
3:35 PM,81.1,63.5,55,29.88,10.0,South,15.0,-,N/A,,Clear,170,2012-12-31 21:35:00
3:55 PM,80.6,64.4,58,29.88,10.0,SSE,16.1,-,N/A,,Scattered Clouds,160,2012-12-31 21:55:00
4:15 PM,80.4,63.7,57,29.87,10.0,SSE,13.8,19.6,N/A,,Scattered Clouds,150,2012-12-31 22:15:00
4:35 PM,80.1,63.5,57,29.87,10.0,SSE,13.8,20.7,N/A,,Clear,160,2012-12-31 22:35:00
5:15 PM,79.2,63.7,59,29.88,7.0,SSE,12.7,-,N/A,,Clear,150,2012-12-31 23:15:00
5:35 PM,78.3,63.9,61,29.89,10.0,SSE,6.9,-,N/A,,Clear,160,2012-12-31 23:35:00
5:55 PM,77.9,64.0,62,29.89,10.0,SSE,5.8,-,N/A,,Clear,150,2012-12-31 23:55:00
6:15 PM,77.2,64.2,64,29.90,10.0,South,4.6,-,N/A,,Clear,170,2013-01-01 00:15:00
6:35 PM,76.8,64.4,65,29.91,10.0,SSE,3.5,-,N/A,,Scattered Clouds,160,2013-01-01 00:35:00
6:55 PM,76.1,64.4,67,29.92,10.0,Calm,Calm,-,N/A,,Scattered Clouds,0,2013-01-01 00:55:00
7:15 PM,75.6,64.8,69,29.92,10.0,ESE,3.5,-,N/A,,Scattered Clouds,120,2013-01-01 01:15:00
7:35 PM,76.1,65.7,70,29.92,10.0,SE,5.8,-,N/A,,Scattered Clouds,140,2013-01-01 01:35:00
7:55 PM,76.1,66.0,71,29.93,10.0,Calm,Calm,-,N/A,,Clear,0,2013-01-01 01:55:00
8:15 PM,76.1,66.2,71,29.93,10.0,SSE,4.6,-,N/A,,Scattered Clouds,160,2013-01-01 02:15:00
8:35 PM,74.3,66.7,77,29.93,10.0,SSE,3.5,-,N/A,,Clear,150,2013-01-01 02:35:00
8:55 PM,74.3,66.2,76,29.94,10.0,SE,4.6,-,N/A,,Clear,140,2013-01-01 02:55:00
9:15 PM,73.6,66.4,78,29.94,10.0,SE,4.6,-,N/A,,Clear,130,2013-01-01 03:15:00
9:35 PM,74.3,66.2,76,29.93,10.0,ESE,6.9,-,N/A,,Clear,120,2013-01-01 03:35:00
9:55 PM,74.1,66.4,77,29.93,10.0,ESE,5.8,-,N/A,,Clear,120,2013-01-01 03:55:00
10:15 PM,73.8,66.6,78,29.93,10.0,ESE,8.1,-,N/A,,Clear,120,2013-01-01 04:15:00
10:35 PM,73.4,66.6,79,29.93,10.0,SE,6.9,-,N/A,,Clear,140,2013-01-01 04:35:00
10:55 PM,72.9,66.6,81,29.93,10.0,SE,6.9,-,N/A,,Clear,140,2013-01-01 04:55:00
11:15 PM,73.4,66.7,80,29.94,10.0,SSE,8.1,-,N/A,,Clear,150,2013-01-01 05:15:00
11:35 PM,72.5,66.6,82,29.94,10.0,SSE,5.8,-,N/A,,Clear,160,2013-01-01 05:35:00
11:55 PM,71.8,66.4,83,29.93,10.0,South,4.6,-,N/A,,Scattered Clouds,170,2013-01-01 05:55:00